Tillbaka till svenska Fidonet
English   Information   Debug  
FILM   0/18
FNEWS_PUBLISH   4461
FN_SYSOP   41735
FN_SYSOP_OLD1   71952
FTP_FIDO   0/2
FTSC_PUBLIC   0/13627
FUNNY   0/4886
GENEALOGY.EUR   0/71
GET_INFO   105
GOLDED   0/408
HAM   0/16084
HOLYSMOKE   0/6791
HOT_SITES   0/1
HTMLEDIT   0/71
HUB203   466
HUB_100   264
HUB_400   39
HUMOR   0/29
IC   0/2851
INTERNET   0/424
INTERUSER   0/3
IP_CONNECT   719
JAMNNTPD   0/233
JAMTLAND   0/47
KATTY_KORNER   0/41
LAN   0/16
LINUX-USER   0/19
LINUXHELP   0/1155
LINUX   0/22120
LINUX_BBS   0/957
mail   18.68
mail_fore_ok   249
MENSA   0/341
MODERATOR   0/102
MONTE   0/992
MOSCOW_OKLAHOMA   0/1245
MUFFIN   0/783
MUSIC   0/321
N203_STAT   932
N203_SYSCHAT   313
NET203   321
NET204   69
NET_DEV   0/10
NORD.ADMIN   0/101
NORD.CHAT   0/2572
NORD.FIDONET   189
NORD.HARDWARE   0/28
NORD.KULTUR   0/114
NORD.PROG   0/32
NORD.SOFTWARE   0/88
NORD.TEKNIK   0/58
NORD   0/453
OCCULT_CHAT   0/93
OS2BBS   0/787
OS2DOSBBS   0/580
OS2HW   0/42
OS2INET   0/37
OS2LAN   0/134
OS2PROG   0/36
OS2REXX   0/113
OS2USER-L   207
OS2   0/4794
OSDEBATE   0/18996
PASCAL   0/490
PERL   0/457
PHP   0/45
POINTS   0/405
POLITICS   0/29554
POL_INC   0/14731
PSION   103
R20_ADMIN   1124
R20_AMATORRADIO   0/2
R20_BEST_OF_FIDONET   13
R20_CHAT   0/893
R20_DEPP   0/3
R20_DEV   399
R20_ECHO2   1379
R20_ECHOPRES   0/35
R20_ESTAT   0/719
R20_FIDONETPROG...
...RAM.MYPOINT
  0/2
R20_FIDONETPROGRAM   0/22
R20_FIDONET   0/248
R20_FILEFIND   0/24
R20_FILEFOUND   0/22
R20_HIFI   0/3
R20_INFO2   3268
R20_INTERNET   0/12940
R20_INTRESSE   0/60
R20_INTR_KOM   0/99
R20_KANDIDAT.CHAT   42
R20_KANDIDAT   28
R20_KOM_DEV   112
R20_KONTROLL   0/13318
R20_KORSET   0/18
R20_LOKALTRAFIK   0/24
R20_MODERATOR   0/1852
R20_NC   76
R20_NET200   245
R20_NETWORK.OTH...
...ERNETS
  0/13
R20_OPERATIVSYS...
...TEM.LINUX
  0/44
R20_PROGRAMVAROR   0/1
R20_REC2NEC   534
R20_SFOSM   0/341
R20_SF   0/108
R20_SPRAK.ENGLISH   0/1
R20_SQUISH   107
R20_TEST   2
R20_WORST_OF_FIDONET   12
RAR   0/9
RA_MULTI   106
RA_UTIL   0/162
REGCON.EUR   0/2056
REGCON   0/13
SCIENCE   0/1206
SF   0/239
SHAREWARE_SUPPORT   0/5146
SHAREWRE   0/14
SIMPSONS   0/169
STATS_OLD1   0/2539.065
STATS_OLD2   0/2530
STATS_OLD3   0/2395.095
STATS_OLD4   0/1692.25
SURVIVOR   0/495
SYSOPS_CORNER   0/3
SYSOP   0/84
TAGLINES   0/112
TEAMOS2   0/4530
TECH   0/2617
TEST.444   0/105
TRAPDOOR   0/19
TREK   0/755
TUB   0/290
UFO   0/40
UNIX   0/1316
USA_EURLINK   0/102
USR_MODEMS   0/1
VATICAN   0/2740
VIETNAM_VETS   0/14
VIRUS   0/378
VIRUS_INFO   0/201
VISUAL_BASIC   0/473
WHITEHOUSE   0/5187
WIN2000   0/101
WIN32   0/30
WIN95   0/4290
WIN95_OLD1   0/70272
WINDOWS   0/1517
WWB_SYSOP   0/419
WWB_TECH   0/810
ZCC-PUBLIC   0/1
ZEC   4

 
4DOS   0/134
ABORTION   0/7
ALASKA_CHAT   0/506
ALLFIX_FILE   0/1313
ALLFIX_FILE_OLD1   0/7997
ALT_DOS   0/152
AMATEUR_RADIO   0/1039
AMIGASALE   0/14
AMIGA   0/331
AMIGA_INT   0/1
AMIGA_PROG   0/20
AMIGA_SYSOP   0/26
ANIME   0/15
ARGUS   0/924
ASCII_ART   0/340
ASIAN_LINK   0/651
ASTRONOMY   0/417
AUDIO   0/92
AUTOMOBILE_RACING   0/105
BABYLON5   0/17862
BAG   135
BATPOWER   0/361
BBBS.ENGLISH   0/382
BBSLAW   0/109
BBS_ADS   0/5290
BBS_INTERNET   0/507
BIBLE   0/3563
BINKD   0/1119
BINKLEY   0/215
BLUEWAVE   0/2173
CABLE_MODEMS   0/25
CBM   0/46
CDRECORD   0/66
CDROM   0/20
CLASSIC_COMPUTER   0/378
COMICS   0/15
CONSPRCY   0/899
COOKING   33709
COOKING_OLD1   0/24719
COOKING_OLD2   0/40862
COOKING_OLD3   0/37489
COOKING_OLD4   0/35496
COOKING_OLD5   9370
C_ECHO   0/189
C_PLUSPLUS   0/31
DIRTY_DOZEN   0/201
DOORGAMES   0/2065
DOS_INTERNET   0/196
duplikat   6002
ECHOLIST   0/18295
EC_SUPPORT   0/318
ELECTRONICS   0/359
ELEKTRONIK.GER   1534
ENET.LINGUISTIC   0/13
ENET.POLITICS   0/4
ENET.SOFT   0/11701
ENET.SYSOP   33963
ENET.TALKS   0/32
ENGLISH_TUTOR   0/2000
EVOLUTION   0/1335
FDECHO   0/217
FDN_ANNOUNCE   0/7068
FIDONEWS   24191
FIDONEWS_OLD1   0/49742
FIDONEWS_OLD2   0/35949
FIDONEWS_OLD3   0/30874
FIDONEWS_OLD4   0/37224
FIDO_SYSOP   12852
FIDO_UTIL   0/180
FILEFIND   0/209
FILEGATE   0/212
Möte HAM, 16084 texter
 lista första sista föregående nästa
Text 4953, 979 rader
Skriven 2011-12-16 00:30:42 av Amsat List (1:323/120.0)
Ärende: [keps] orb11349.amsa
============================
[keps] orb11349.amsa

Sender: keps-bounces@amsat.org
Return-Path: <keps-bounces@amsat.org>
X-Rcpt: craig.healy@chowda.com
X-UIDL: 1324011924.379

SB KEPS @ AMSAT  $ORB11349.O
Orbital Elements  11349.OSCAR

HR AMSAT ORBITAL ELEMENTS FOR OSCAR SATELLITES
FROM WA5QGD FORT WORTH,TX December 15, 2011
Send Subscribe/unsubscribe to KEPS at http://www.amsat.org/mailman/listinfo/kep
BID: ORB11349.O
TO ALL RADIO AMATEURS BT

Satellite: AO-07
Catalog number: 07530
Epoch time:      11348.51740542
Element set:     254
Inclination:      101.3967 deg
RA of node:       347.9610 deg
Eccentricity:    0.0011913
Arg of perigee:   287.0127 deg
Mean anomaly:     072.9643 deg
Mean motion:   12.53586356 rev/day
Decay rate:       -2.7e-07 rev/day^2
Epoch rev:           69678
Checksum:              309

Satellite: FO-29
Catalog number: 24278
Epoch time:      11348.94025180
Element set:    0732
Inclination:      098.5732 deg
RA of node:       108.9610 deg
Eccentricity:    0.0351005
Arg of perigee:   148.8913 deg
Mean anomaly:     213.3535 deg
Mean motion:   13.52973702 rev/day
Decay rate:       -3.0e-08 rev/day^2
Epoch rev:           75690
Checksum:              303

Satellite: SO-33
Catalog number: 25509
Epoch time:      11348.89035421
Element set:    0122
Inclination:      031.4343 deg
RA of node:       302.1769 deg
Eccentricity:    0.0352376
Arg of perigee:   022.0362 deg
Mean anomaly:     339.5075 deg
Mean motion:   14.28613756 rev/day
Decay rate:      1.387e-05 rev/day^2
Epoch rev:           68613
Checksum:              295

Satellite: RS-22
Catalog number: 27939
Epoch time:      11349.65698276
Element set:     901
Inclination:      097.8240 deg
RA of node:       194.7858 deg
Eccentricity:    0.0014387
Arg of perigee:   127.9033 deg
Mean anomaly:     232.3456 deg
Mean motion:   14.63826513 rev/day
Decay rate:       8.93e-06 rev/day^2
Epoch rev:           43888
Checksum:              356

Satellite: VO-52
Catalog number: 28650
Epoch time:      11348.60976187
Element set:    0974
Inclination:      097.6207 deg
RA of node:       023.4785 deg
Eccentricity:    0.0025555
Arg of perigee:   291.7429 deg
Mean anomaly:     068.1063 deg
Mean motion:   14.82532048 rev/day
Decay rate:      2.393e-05 rev/day^2
Epoch rev:           35747
Checksum:              338

Satellite: SO-67
Catalog number: 35870
Epoch time:      11349.63884499
Element set:     497
Inclination:      097.2584 deg
RA of node:       026.8257 deg
Eccentricity:    0.0003782
Arg of perigee:   090.9857 deg
Mean anomaly:     055.1986 deg
Mean motion:   15.22283847 rev/day
Decay rate:      6.973e-05 rev/day^2
Epoch rev:           12452
Checksum:              372

Satellite: HO-68
Catalog number: 36122
Epoch time:      11349.59323603
Element set:      15
Inclination:      100.3918 deg
RA of node:       047.4591 deg
Eccentricity:    0.0007644
Arg of perigee:   168.6691 deg
Mean anomaly:     191.4601 deg
Mean motion:   13.16291356 rev/day
Decay rate:       -4.4e-07 rev/day^2
Epoch rev:            9610
Checksum:              288

/EX
SB KEPS @ AMSAT  $ORB11349.D
Orbital Elements  11349.MICROS

HR AMSAT ORBITAL ELEMENTS FOR THE MICROSATS
FROM WA5QGD FORT WORTH,TX December 15, 2011
Send Subscribe/unsubscribe to KEPS at http://www.amsat.org/mailman/listinfo/kep
BID: ORB11349.D
TO ALL RADIO AMATEURS BT

Satellite: UO-11
Catalog number: 14781
Epoch time:      11348.71382307
Element set:    0740
Inclination:      097.9812 deg
RA of node:       044.6260 deg
Eccentricity:    0.0007932
Arg of perigee:   276.3467 deg
Mean anomaly:     083.6836 deg
Mean motion:   14.80231380 rev/day
Decay rate:       9.74e-06 rev/day^2
Epoch rev:           49249
Checksum:              318

Satellite: AO-16
Catalog number: 20439
Epoch time:      11348.85887182
Element set:    0360
Inclination:      098.4076 deg
RA of node:       292.6466 deg
Eccentricity:    0.0011124
Arg of perigee:   353.4197 deg
Mean anomaly:     006.6834 deg
Mean motion:   14.31994910 rev/day
Decay rate:       2.87e-06 rev/day^2
Epoch rev:           14347
Checksum:              322

Satellite: LO-19
Catalog number: 20442
Epoch time:      11348.91022646
Element set:     271
Inclination:      098.3729 deg
RA of node:       296.3690 deg
Eccentricity:    0.0011769
Arg of perigee:   345.2787 deg
Mean anomaly:     014.8050 deg
Mean motion:   14.32216723 rev/day
Decay rate:       2.73e-06 rev/day^2
Epoch rev:           14366
Checksum:              303

Satellite: AO-27
Catalog number: 22825
Epoch time:      11348.82256510
Element set:     983
Inclination:      098.5541 deg
RA of node:       289.7364 deg
Eccentricity:    0.0009259
Arg of perigee:   103.3820 deg
Mean anomaly:     256.8410 deg
Mean motion:   14.29410163 rev/day
Decay rate:       1.66e-06 rev/day^2
Epoch rev:           94999
Checksum:              327

Satellite: IO-26
Catalog number: 22826
Epoch time:      11348.85861085
Element set:    0742
Inclination:      098.5481 deg
RA of node:       290.1921 deg
Eccentricity:    0.0009795
Arg of perigee:   096.2856 deg
Mean anomaly:     263.9439 deg
Mean motion:   14.29679120 rev/day
Decay rate:       2.62e-06 rev/day^2
Epoch rev:           95012
Checksum:              338

Satellite: GO-32
Catalog number: 25397
Epoch time:      11348.66175111
Element set:    0654
Inclination:      098.3431 deg
RA of node:       331.7215 deg
Eccentricity:    0.0002105
Arg of perigee:   094.4702 deg
Mean anomaly:     265.6703 deg
Mean motion:   14.23245446 rev/day
Decay rate:      .00000000 rev/day^2
Epoch rev:           69763
Checksum:              273

